DateTimeUTC,F1_A11,F1_S11,BsB_S11,BsG_S11,BsR_S11,BbsB_S11,BbsG_S11,BbsR_S11,BaB_A11,BaG_A11,BaR_A11,Tu_S11,T_S11,Uu_S11,U_S11,P_S11,T1_A11
2021-08-09T04:00:00Z,00000200,20000000,,,,,,,0000.16,-000.44,-000.14,18.4,25.3,04.9,03.2,0669.5,31.0
2021-08-09T04:01:00Z,00000200,20000000,,,,,,,-000.15,-000.61,-000.20,18.4,25.3,04.9,03.2,0669.5,31.0
2021-08-09T04:02:00Z,00000200,20000000,,,,,,,-000.51,0000.26,0000.20,18.4,25.3,04.8,03.1,0669.6,31.0
2021-08-09T04:03:00Z,00000200,60000000,,,,,,,-000.03,-000.23,-000.23,18.4,25.3,04.6,03.0,0669.6,31.0
2021-08-09T04:04:00Z,00000200,40000000,0002.53,0001.44,0000.64,-000.31,0000.46,0000.57,0000.08,0000.37,0000.18,18.5,25.1,04.6,03.1,0670.5,31.0
2021-08-09T04:05:00Z,00000200,00000000,0002.30,0001.54,0000.69,0000.58,0000.17,0000.16,0000.30,-000.07,-000.05,18.6,25.1,04.5,03.0,0670.6,31.0
2021-08-09T04:06:00Z,00000200,00000000,0002.14,0001.06,0001.02,0000.53,0000.16,0000.19,-000.09,-000.12,0000.09,18.6,25.0,04.6,03.1,0670.6,31.0
2021-08-09T04:07:00Z,00000200,00000000,0002.74,0001.41,0001.03,0000.21,0000.04,0000.31,-000.55,-000.34,0000.10,18.6,25.0,04.6,03.1,0670.6,31.0
2021-08-09T04:08:00Z,00000200,00000000,0003.00,0001.31,0001.13,0000.64,0000.54,0000.20,-000.22,0000.08,0000.09,18.5,25.0,04.5,03.0,0670.6,31.0
2021-08-09T04:09:00Z,00000200,00000000,0002.34,0001.35,0000.89,0000.46,0000.02,0000.40,0000.14,-000.17,0000.03,18.5,25.0,04.6,03.1,0670.6,31.0
2021-08-09T04:10:00Z,00000200,00000000,0002.98,0001.08,0000.66,0000.07,0000.03,0000.22,0000.21,0000.47,0000.15,18.5,24.9,04.5,03.1,0670.6,31.0
2021-08-09T04:11:00Z,00000200,00000000,0002.35,0001.32,0000.72,0001.00,0000.42,0000.30,-000.63,-000.23,-000.28,18.5,24.9,04.5,03.0,0670.6,31.0
2021-08-09T04:12:00Z,00000200,00000000,0002.02,0001.54,0000.76,0000.83,0000.05,0000.08,0000.52,0000.00,0000.42,18.5,24.9,04.5,03.0,0670.6,31.0
2021-08-09T04:13:00Z,00000200,00000000,0002.06,0001.11,0001.02,0000.51,0000.33,0000.45,-000.04,-000.08,0000.19,18.5,25.0,04.5,03.0,0670.6,31.0
2021-08-09T04:14:00Z,00000200,00000000,0002.21,0000.85,0000.90,0000.09,-000.06,0000.19,0000.20,0000.42,0000.09,18.5,24.9,04.5,03.1,0670.6,31.0
2021-08-09T04:15:00Z,00000200,00000000,0002.23,0001.20,0000.88,0000.50,0000.25,0000.41,-000.08,-000.01,0000.40,18.5,24.9,04.6,03.1,0670.6,31.0
2021-08-09T04:16:00Z,00000200,00000000,0001.53,0001.43,0000.69,0000.35,0000.20,0000.19,-000.07,-000.22,-000.26,18.5,24.9,04.7,03.2,0670.6,31.0
2021-08-09T04:17:00Z,00000200,00000000,0001.69,0000.95,0000.86,0000.60,0000.35,0000.17,-000.19,0000.26,0000.52,18.5,24.9,04.6,03.1,0670.6,31.0
2021-08-09T04:18:00Z,00000200,00000000,0001.37,0001.20,0000.85,0000.31,0000.26,0000.46,-000.17,-000.12,-000.19,18.5,24.9,04.5,03.1,0670.6,31.0
2021-08-09T04:19:00Z,00000200,00000000,0002.12,0001.27,0001.08,0000.30,0000.09,0000.24,-000.25,-000.53,0000.18,18.4,24.9,04.4,03.0,0670.6,31.0
2021-08-09T04:20:00Z,00000200,00000000,0001.47,0001.18,0000.56,0000.02,0000.18,0000.28,0000.38,0000.67,-000.11,18.4,24.9,04.5,03.0,0670.6,31.0
2021-08-09T04:21:00Z,00000200,00000000,0001.21,0001.17,0000.87,0000.22,0000.15,0000.15,-000.03,-000.03,0000.73,18.4,24.9,04.6,03.1,0670.6,31.0
2021-08-09T04:22:00Z,00000200,00000000,0001.83,0001.18,0000.60,0000.35,0000.16,-000.17,0000.57,-000.04,-000.15,18.4,24.9,04.6,03.1,0670.6,31.0
2021-08-09T04:23:00Z,00000200,00000000,0002.00,0000.97,0000.56,0000.63,0000.11,-000.30,-000.22,0000.37,0000.62,18.5,24.9,04.7,03.2,0670.6,31.0
2021-08-09T04:24:00Z,00000200,00000000,0001.77,0000.90,0000.47,0000.23,-000.10,0000.15,-000.00,0000.17,-000.01,18.5,24.9,04.6,03.1,0670.6,31.0
2021-08-09T04:25:00Z,00000200,00000000,0001.96,0001.04,0000.66,0000.51,0000.35,-000.15,-000.14,-000.30,-000.18,18.6,25.0,04.5,03.1,0670.6,31.0
2021-08-09T04:26:00Z,00000200,00000000,0001.68,0001.08,0000.74,0000.26,0000.01,0000.19,-000.32,-000.23,0000.03,18.7,25.0,04.5,03.0,0670.6,31.0
2021-08-09T04:27:00Z,00000200,00000000,0002.21,0001.16,0000.71,0000.44,-000.12,-000.20,0000.29,-000.20,0000.23,18.7,25.1,04.4,03.0,0670.6,31.0
2021-08-09T04:28:00Z,00000200,00000000,0002.05,0001.05,0000.51,0000.06,0000.02,0000.04,-000.05,0000.12,0000.24,18.7,25.1,04.4,03.0,0670.6,31.0
2021-08-09T04:29:00Z,00000200,00000000,0002.03,0001.09,0000.76,0000.08,-000.03,0000.15,-000.11,0000.58,-000.17,18.7,25.1,04.5,03.0,0670.6,31.1
2021-08-09T04:30:00Z,00000200,00000000,0002.00,0001.05,0001.09,0000.12,0000.03,0000.24,-000.16,-000.46,0000.06,18.7,25.1,04.3,02.9,0670.6,31.0
2021-08-09T04:31:00Z,00000200,00000000,0001.58,0001.26,0000.95,0000.17,0000.18,0000.43,-000.05,0000.03,-000.08,18.7,25.0,04.3,02.9,0670.6,31.0
2021-08-09T04:32:00Z,00000200,00000000,0001.51,0001.20,0000.82,0000.41,-000.16,0000.47,-000.48,-000.48,-000.27,18.7,25.0,04.2,02.9,0670.6,31.0
2021-08-09T04:33:00Z,00000200,00000000,0001.50,0001.25,0000.95,0000.11,0000.27,0000.05,0000.01,-000.01,0000.40,18.7,25.0,04.2,02.8,0670.6,31.0
2021-08-09T04:34:00Z,00000200,00000000,0002.46,0001.56,0001.01,0000.54,0000.38,0000.00,-000.15,-000.04,-000.10,18.6,25.0,04.1,02.8,0670.6,31.0
2021-08-09T04:35:00Z,00000200,00000000,0002.60,0001.50,0000.97,0000.55,0000.08,0000.12,-000.37,-000.29,-000.05,18.6,25.0,03.9,02.6,0670.6,31.0
2021-08-09T04:36:00Z,00000200,00000000,0001.75,0001.41,0000.84,0000.29,0000.30,0000.14,-000.21,-000.40,-000.51,18.6,25.0,04.0,02.7,0670.6,31.0
2021-08-09T04:37:00Z,00000200,00000000,0002.43,0001.37,0000.96,-000.00,0000.29,-000.08,-000.12,0000.03,0000.43,18.6,25.0,03.8,02.6,0670.5,31.0
2021-08-09T04:38:00Z,00000200,00000000,0001.73,0001.58,0000.78,0000.38,0000.10,0000.32,0000.06,0000.21,0000.21,18.6,25.0,03.8,02.6,0670.5,31.0
2021-08-09T04:39:00Z,00000200,00000000,0002.34,0001.09,0000.63,0000.63,-000.02,0000.21,0000.19,-000.06,0000.23,18.7,25.0,03.8,02.6,0670.5,31.0
2021-08-09T04:40:00Z,00000200,00000000,0002.32,0001.18,0000.75,0000.46,0000.20,0000.19,-000.10,0000.41,-000.31,18.7,25.1,03.8,02.6,0670.5,31.0
2021-08-09T04:41:00Z,00000200,00000000,0002.38,0001.20,0001.02,0000.95,0000.08,0000.25,-000.14,-000.50,0000.39,18.8,25.1,03.8,02.6,0670.5,31.1
2021-08-09T04:42:00Z,00000200,00000000,0002.63,0001.23,0001.06,0000.57,0000.31,0000.00,0000.08,0000.35,0000.50,18.8,25.1,03.8,02.6,0670.5,31.1
2021-08-09T04:43:00Z,00000200,00000000,0001.81,0001.14,0000.92,0000.29,0000.40,0000.00,0000.13,0000.01,0000.03,18.8,25.1,03.9,02.6,0670.5,31.1
2021-08-09T04:44:00Z,00000200,00000000,0002.95,0001.40,0001.14,0000.28,0000.15,0000.26,-000.55,-000.62,-000.31,18.8,25.1,03.8,02.6,0670.5,31.0
2021-08-09T04:45:00Z,00000200,00000000,0002.31,0001.67,0000.66,0000.53,-000.01,0000.32,-000.01,0000.20,0000.15,18.8,25.1,03.6,02.4,0670.5,31.0
2021-08-09T04:46:00Z,00000200,00000000,0002.21,0001.56,0001.21,0000.04,0000.26,0000.31,-000.25,-000.05,-000.57,18.8,25.1,03.5,02.4,0670.5,31.0
2021-08-09T04:47:00Z,00000200,00000000,0003.33,0001.65,0000.87,0000.52,0000.34,0000.16,-000.30,-000.23,0000.41,18.7,25.1,03.5,02.4,0670.5,31.0
2021-08-09T04:48:00Z,00000200,00000000,0002.63,0001.60,0000.90,0000.44,0000.10,0000.25,-000.28,-000.10,0000.09,18.7,25.1,03.5,02.4,0670.5,31.0
2021-08-09T04:49:00Z,00000200,00000000,0002.47,0001.49,0001.01,0000.38,0000.27,0000.49,0000.43,0000.07,0000.17,18.7,25.1,03.5,02.4,0670.5,31.0
2021-08-09T04:50:00Z,00000200,00000000,0003.27,0001.63,0000.59,0000.17,0000.25,-000.25,-000.23,-000.02,0000.41,18.7,25.1,03.4,02.3,0670.4,31.0
2021-08-09T04:51:00Z,00000200,00000000,0003.01,0001.71,0001.07,0000.68,0000.17,0000.17,-000.27,-000.23,-000.51,18.7,25.1,03.5,02.3,0670.4,31.0
2021-08-09T04:52:00Z,00000200,00000000,0002.76,0001.60,0000.90,0000.34,0000.32,0000.23,0000.49,0000.27,0000.62,18.7,25.0,03.4,02.3,0670.4,31.0
2021-08-09T04:53:00Z,00000200,00000000,0002.44,0001.76,0000.97,-000.32,0000.14,-000.09,-000.10,0000.05,0000.10,18.7,25.1,03.6,02.4,0670.4,31.0
2021-08-09T04:54:00Z,00000200,00000000,0002.77,0001.64,0001.15,0000.76,0000.12,0000.02,-000.23,0000.20,0000.33,18.7,25.1,03.3,02.3,0670.4,31.0
2021-08-09T04:55:00Z,00000200,00000000,0002.93,0001.62,0001.19,-000.02,-000.07,0000.04,0000.11,-000.03,0000.50,18.7,25.1,03.4,02.3,0670.4,31.0
2021-08-09T04:56:00Z,00000200,00000000,0002.22,0001.62,0000.99,-000.29,0000.29,0000.03,-000.02,0000.06,0000.46,18.8,25.1,03.5,02.3,0670.3,31.0
2021-08-09T04:57:00Z,00000200,40000000,,,,,,,0000.73,0000.44,0000.13,18.8,25.2,03.8,02.6,0670.3,31.0
2021-08-09T04:58:00Z,00000200,60000000,,,,,,,-000.37,-000.33,-000.33,18.5,25.3,03.7,02.4,0669.4,31.0
2021-08-09T04:59:00Z,00000200,20000000,,,,,,,0000.16,-000.09,0000.44,18.5,25.4,03.7,02.4,0669.4,31.0
